Year,Month,Day,Hour,Minute,Value (Times are PST for temperature in C)
2015,05,21,00,00,17.30
2015,05,21,00,01,17.30
2015,05,21,00,02,17.30
2015,05,21,00,03,17.30
2015,05,21,00,04,17.30
2015,05,21,00,05,17.30
2015,05,21,00,06,17.20
2015,05,21,00,07,17.20
2015,05,21,00,08,17.20
2015,05,21,00,09,17.20
2015,05,21,00,10,17.20
2015,05,21,00,11,17.20
2015,05,21,00,12,17.10
2015,05,21,00,13,17.10
2015,05,21,00,14,17.10
2015,05,21,00,15,17.10
2015,05,21,00,16,17.10
2015,05,21,00,17,17.00
2015,05,21,00,18,17.00
2015,05,21,00,19,17.00
2015,05,21,00,20,17.00
2015,05,21,00,21,17.00
2015,05,21,00,22,17.00
2015,05,21,00,23,16.90
2015,05,21,00,24,16.90
2015,05,21,00,25,16.90
2015,05,21,00,26,16.90
2015,05,21,00,27,16.90
2015,05,21,00,28,16.90
2015,05,21,00,29,16.90
2015,05,21,00,30,16.90
2015,05,21,00,31,16.90
2015,05,21,00,32,16.90
2015,05,21,00,33,16.90
2015,05,21,00,34,16.90
2015,05,21,00,35,16.90
2015,05,21,00,36,16.90
2015,05,21,00,37,16.90
2015,05,21,00,38,16.90
2015,05,21,00,39,16.80
2015,05,21,00,40,16.80
2015,05,21,00,41,16.80
2015,05,21,00,42,16.80
2015,05,21,00,43,16.80
2015,05,21,00,44,16.80
2015,05,21,00,45,16.80
2015,05,21,00,46,16.80
2015,05,21,00,47,16.80
2015,05,21,00,48,16.80
2015,05,21,00,49,16.70
2015,05,21,00,50,16.70
2015,05,21,00,51,16.70
2015,05,21,00,52,16.70
2015,05,21,00,53,16.60
2015,05,21,00,54,16.60
2015,05,21,00,55,16.50
2015,05,21,00,56,16.50
2015,05,21,00,57,16.50
2015,05,21,00,58,16.40
2015,05,21,00,59,16.40
2015,05,21,01,00,16.30
2015,05,21,01,01,16.30
2015,05,21,01,02,16.30
2015,05,21,01,03,16.20
2015,05,21,01,04,16.20
2015,05,21,01,05,16.20
2015,05,21,01,06,16.10
2015,05,21,01,07,16.10
2015,05,21,01,08,16.00
2015,05,21,01,09,16.00
2015,05,21,01,10,16.00
2015,05,21,01,11,15.90
2015,05,21,01,12,15.90
2015,05,21,01,13,15.80
2015,05,21,01,14,15.80
2015,05,21,01,15,15.80
2015,05,21,01,16,15.80
2015,05,21,01,17,15.70
2015,05,21,01,18,15.70
2015,05,21,01,19,15.70
2015,05,21,01,20,15.60
2015,05,21,01,21,15.60
2015,05,21,01,22,15.50
2015,05,21,01,23,15.50
2015,05,21,01,24,15.40
2015,05,21,01,25,15.40
2015,05,21,01,26,15.40
2015,05,21,01,27,15.30
2015,05,21,01,28,15.30
2015,05,21,01,29,15.30
2015,05,21,01,30,15.30
2015,05,21,01,31,15.30
2015,05,21,01,32,15.20
2015,05,21,01,33,15.20
2015,05,21,01,34,15.20
2015,05,21,01,35,15.20
2015,05,21,01,36,15.20
2015,05,21,01,37,15.20
2015,05,21,01,38,15.20
2015,05,21,01,39,15.10
2015,05,21,01,40,15.10
2015,05,21,01,41,15.10
2015,05,21,01,42,15.10
2015,05,21,01,43,15.10
2015,05,21,01,44,15.10
2015,05,21,01,45,15.10
2015,05,21,01,46,15.00
2015,05,21,01,47,15.00
2015,05,21,01,48,15.00
2015,05,21,01,49,14.90
2015,05,21,01,50,14.90
2015,05,21,01,51,14.90
2015,05,21,01,52,14.90
2015,05,21,01,53,14.80
2015,05,21,01,54,14.80
2015,05,21,01,55,14.80
2015,05,21,01,56,14.80
2015,05,21,01,57,14.70
2015,05,21,01,58,14.70
2015,05,21,01,59,14.70
2015,05,21,02,00,14.70
2015,05,21,02,01,14.70
2015,05,21,02,02,14.70
2015,05,21,02,03,14.70
2015,05,21,02,04,14.60
2015,05,21,02,05,14.60
2015,05,21,02,06,14.60
2015,05,21,02,07,14.60
2015,05,21,02,08,14.60
2015,05,21,02,09,14.50
2015,05,21,02,10,14.50
2015,05,21,02,11,14.50
2015,05,21,02,12,14.40
2015,05,21,02,13,14.40
2015,05,21,02,14,14.40
2015,05,21,02,15,14.40
2015,05,21,02,16,14.40
2015,05,21,02,17,14.30
2015,05,21,02,18,14.30
2015,05,21,02,19,14.30
2015,05,21,02,20,14.30
2015,05,21,02,21,14.20
2015,05,21,02,22,14.20
2015,05,21,02,23,14.20
2015,05,21,02,24,14.20
2015,05,21,02,25,14.20
2015,05,21,02,26,14.10
2015,05,21,02,27,14.10
2015,05,21,02,28,14.10
2015,05,21,02,29,14.10
2015,05,21,02,30,14.00
2015,05,21,02,31,14.00
2015,05,21,02,32,14.00
2015,05,21,02,33,13.90
2015,05,21,02,34,13.90
2015,05,21,02,35,13.90
2015,05,21,02,36,13.90
2015,05,21,02,37,13.90
2015,05,21,02,38,13.80
2015,05,21,02,39,13.80
2015,05,21,02,40,13.80
2015,05,21,02,41,13.80
2015,05,21,02,42,13.80
2015,05,21,02,43,13.80
2015,05,21,02,44,13.80
2015,05,21,02,45,13.80
2015,05,21,02,46,13.80
2015,05,21,02,47,13.80
2015,05,21,02,48,13.80
2015,05,21,02,49,13.80
2015,05,21,02,50,13.80
2015,05,21,02,51,13.70
2015,05,21,02,52,13.70
2015,05,21,02,53,13.70
2015,05,21,02,54,13.70
2015,05,21,02,55,13.70
2015,05,21,02,56,13.70
2015,05,21,02,57,13.70
2015,05,21,02,58,13.70
2015,05,21,02,59,13.70
2015,05,21,03,00,13.70
2015,05,21,03,01,13.70
2015,05,21,03,02,13.70
2015,05,21,03,03,13.70
2015,05,21,03,04,13.70
2015,05,21,03,05,13.70
2015,05,21,03,06,13.70
2015,05,21,03,07,13.70
2015,05,21,03,08,13.70
2015,05,21,03,09,13.70
2015,05,21,03,10,13.70
2015,05,21,03,11,13.70
2015,05,21,03,12,13.70
2015,05,21,03,13,13.70
2015,05,21,03,14,13.70
2015,05,21,03,15,13.70
2015,05,21,03,16,13.70
2015,05,21,03,17,13.70
2015,05,21,03,18,13.70
2015,05,21,03,19,13.60
2015,05,21,03,20,13.60
2015,05,21,03,21,13.60
2015,05,21,03,22,13.60
2015,05,21,03,23,13.60
2015,05,21,03,24,13.60
2015,05,21,03,25,13.60
2015,05,21,03,26,13.60
2015,05,21,03,27,13.50
2015,05,21,03,28,13.50
2015,05,21,03,29,13.50
2015,05,21,03,30,13.50
2015,05,21,03,31,13.40
2015,05,21,03,32,13.40
2015,05,21,03,33,13.40
2015,05,21,03,34,13.40
2015,05,21,03,35,13.40
2015,05,21,03,36,13.30
2015,05,21,03,37,13.30
2015,05,21,03,38,13.30
2015,05,21,03,39,13.30
2015,05,21,03,40,13.30
2015,05,21,03,41,13.20
2015,05,21,03,42,13.20
2015,05,21,03,43,13.20
2015,05,21,03,44,13.20
2015,05,21,03,45,13.20
2015,05,21,03,46,13.10
2015,05,21,03,47,13.10
2015,05,21,03,48,13.10
2015,05,21,03,49,13.10
2015,05,21,03,50,13.10
2015,05,21,03,51,13.10
2015,05,21,03,52,13.10
2015,05,21,03,53,13.00
2015,05,21,03,54,13.00
2015,05,21,03,55,13.00
2015,05,21,03,56,13.00
2015,05,21,03,57,13.00
2015,05,21,03,58,12.90
2015,05,21,03,59,12.90
2015,05,21,04,00,12.90
2015,05,21,04,01,12.90
2015,05,21,04,02,12.90
2015,05,21,04,03,12.90
2015,05,21,04,04,12.80
2015,05,21,04,05,12.80
2015,05,21,04,06,12.80
2015,05,21,04,07,12.80
2015,05,21,04,08,12.80
2015,05,21,04,09,12.80
2015,05,21,04,10,12.80
2015,05,21,04,11,12.80
2015,05,21,04,12,12.70
2015,05,21,04,13,12.70
2015,05,21,04,14,12.70
2015,05,21,04,15,12.70
2015,05,21,04,16,12.70
2015,05,21,04,17,12.70
2015,05,21,04,18,12.70
2015,05,21,04,19,12.70
2015,05,21,04,20,12.70
2015,05,21,04,21,12.70
2015,05,21,04,22,12.70
2015,05,21,04,23,12.70
2015,05,21,04,24,12.60
2015,05,21,04,25,12.60
2015,05,21,04,26,12.60
2015,05,21,04,27,12.60
2015,05,21,04,28,12.60
2015,05,21,04,29,12.60
2015,05,21,04,30,12.50
2015,05,21,04,31,12.50
2015,05,21,04,32,12.50
2015,05,21,04,33,12.50
2015,05,21,04,34,12.50
2015,05,21,04,35,12.50
2015,05,21,04,36,12.50
2015,05,21,04,37,12.40
2015,05,21,04,38,12.40
2015,05,21,04,39,12.40
2015,05,21,04,40,12.40
2015,05,21,04,41,12.40
2015,05,21,04,42,12.40
2015,05,21,04,43,12.40
2015,05,21,04,44,12.40
2015,05,21,04,45,12.30
2015,05,21,04,46,12.30
2015,05,21,04,47,12.30
2015,05,21,04,48,12.30
2015,05,21,04,49,12.30
2015,05,21,04,50,12.30
2015,05,21,04,51,12.20
2015,05,21,04,52,12.20
2015,05,21,04,53,12.20
2015,05,21,04,54,12.20
2015,05,21,04,55,12.30
2015,05,21,04,56,12.30
2015,05,21,04,57,12.30
2015,05,21,04,58,12.30
2015,05,21,04,59,12.30
2015,05,21,05,00,12.40
2015,05,21,05,01,12.40
2015,05,21,05,02,12.40
2015,05,21,05,03,12.40
2015,05,21,05,04,12.40
2015,05,21,05,05,12.40
2015,05,21,05,06,12.40
2015,05,21,05,07,12.40
2015,05,21,05,08,12.40
2015,05,21,05,09,12.40
2015,05,21,05,10,12.40
2015,05,21,05,11,12.50
2015,05,21,05,12,12.50
2015,05,21,05,13,12.50
2015,05,21,05,14,12.50
2015,05,21,05,15,12.60
2015,05,21,05,16,12.60
2015,05,21,05,17,12.60
2015,05,21,05,18,12.60
2015,05,21,05,19,12.60
2015,05,21,05,20,12.60
2015,05,21,05,21,12.60
2015,05,21,05,22,12.60
2015,05,21,05,23,12.60
2015,05,21,05,24,12.60
2015,05,21,05,25,12.50
2015,05,21,05,26,12.50
2015,05,21,05,27,12.50
2015,05,21,05,28,12.50
2015,05,21,05,29,12.50
2015,05,21,05,30,12.50
2015,05,21,05,31,12.50
2015,05,21,05,32,12.50
2015,05,21,05,33,12.50
2015,05,21,05,34,12.50
2015,05,21,05,35,12.50
2015,05,21,05,36,12.40
2015,05,21,05,37,12.40
2015,05,21,05,38,12.40
2015,05,21,05,39,12.40
2015,05,21,05,40,12.40
2015,05,21,05,41,12.40
2015,05,21,05,42,12.40
2015,05,21,05,43,12.40
2015,05,21,05,44,12.40
2015,05,21,05,45,12.40
2015,05,21,05,46,12.40
2015,05,21,05,47,12.40
2015,05,21,05,48,12.40
2015,05,21,05,49,12.40
2015,05,21,05,50,12.40
2015,05,21,05,51,12.40
2015,05,21,05,52,12.40
2015,05,21,05,53,12.40
2015,05,21,05,54,12.40
2015,05,21,05,55,12.40
2015,05,21,05,56,12.40
2015,05,21,05,57,12.40
2015,05,21,05,58,12.40
2015,05,21,05,59,12.40
2015,05,21,06,00,12.50
2015,05,21,06,01,12.50
2015,05,21,06,02,12.50
2015,05,21,06,03,12.50
2015,05,21,06,04,12.50
2015,05,21,06,05,12.50
2015,05,21,06,06,12.50
2015,05,21,06,07,12.50
2015,05,21,06,08,12.50
2015,05,21,06,09,12.60
2015,05,21,06,10,12.60
2015,05,21,06,11,12.60
2015,05,21,06,12,12.60
2015,05,21,06,13,12.60
2015,05,21,06,14,12.60
2015,05,21,06,15,12.60
2015,05,21,06,16,12.60
2015,05,21,06,17,12.50
2015,05,21,06,18,12.50
2015,05,21,06,19,12.60
2015,05,21,06,20,12.60
2015,05,21,06,21,12.50
2015,05,21,06,22,12.50
2015,05,21,06,23,12.50
2015,05,21,06,24,12.50
2015,05,21,06,25,12.50
2015,05,21,06,26,12.50
2015,05,21,06,27,12.50
2015,05,21,06,28,12.50
2015,05,21,06,29,12.50
2015,05,21,06,30,12.60
2015,05,21,06,31,12.60
2015,05,21,06,32,12.70
2015,05,21,06,33,12.70
2015,05,21,06,34,12.70
2015,05,21,06,35,12.70
2015,05,21,06,36,12.60
2015,05,21,06,37,12.60
2015,05,21,06,38,12.60
2015,05,21,06,39,12.60
2015,05,21,06,40,12.60
2015,05,21,06,41,12.60
2015,05,21,06,42,12.60
2015,05,21,06,43,12.60
2015,05,21,06,44,12.60
2015,05,21,06,45,12.70
2015,05,21,06,46,12.70
2015,05,21,06,47,12.70
2015,05,21,06,48,12.70
2015,05,21,06,49,12.70
2015,05,21,06,50,12.80
2015,05,21,06,51,12.80
2015,05,21,06,52,12.80
2015,05,21,06,53,12.80
2015,05,21,06,54,12.80
2015,05,21,06,55,12.80
2015,05,21,06,56,12.90
2015,05,21,06,57,12.90
2015,05,21,06,58,13.00
2015,05,21,06,59,13.20
2015,05,21,07,00,13.30
2015,05,21,07,01,13.40
2015,05,21,07,02,13.50
2015,05,21,07,03,13.60
2015,05,21,07,04,13.80
2015,05,21,07,05,13.90
2015,05,21,07,06,14.00
2015,05,21,07,07,14.00
2015,05,21,07,08,14.10
2015,05,21,07,09,14.10
2015,05,21,07,10,14.10
2015,05,21,07,11,14.10
2015,05,21,07,12,14.20
2015,05,21,07,13,14.20
2015,05,21,07,14,14.20
2015,05,21,07,15,14.20
2015,05,21,07,16,14.20
2015,05,21,07,17,14.20
2015,05,21,07,18,14.30
2015,05,21,07,19,14.30
2015,05,21,07,20,14.30
2015,05,21,07,21,14.40
2015,05,21,07,22,14.40
2015,05,21,07,23,14.40
2015,05,21,07,24,14.50
2015,05,21,07,25,14.50
2015,05,21,07,26,14.60
2015,05,21,07,27,14.70
2015,05,21,07,28,14.80
2015,05,21,07,29,14.90
2015,05,21,07,30,14.90
2015,05,21,07,31,15.00
2015,05,21,07,32,15.00
2015,05,21,07,33,15.00
2015,05,21,07,34,15.00
2015,05,21,07,35,15.10
2015,05,21,07,36,15.10
2015,05,21,07,37,15.10
2015,05,21,07,38,15.10
2015,05,21,07,39,15.10
2015,05,21,07,40,15.10
2015,05,21,07,41,15.10
2015,05,21,07,42,15.10
2015,05,21,07,43,15.10
2015,05,21,07,44,15.10
2015,05,21,07,45,15.10
2015,05,21,07,46,15.10
2015,05,21,07,47,15.20
2015,05,21,07,48,15.20
2015,05,21,07,49,15.20
2015,05,21,07,50,15.30
2015,05,21,07,51,15.30
2015,05,21,07,52,15.30
2015,05,21,07,53,15.40
2015,05,21,07,54,15.40
2015,05,21,07,55,15.50
2015,05,21,07,56,15.60
2015,05,21,07,57,15.60
2015,05,21,07,58,15.60
2015,05,21,07,59,15.70
2015,05,21,08,00,15.80
2015,05,21,08,01,15.80
2015,05,21,08,02,15.80
2015,05,21,08,03,15.90
2015,05,21,08,04,15.90
2015,05,21,08,05,15.90
2015,05,21,08,06,15.90
2015,05,21,08,07,16.00
2015,05,21,08,08,16.10
2015,05,21,08,09,16.10
2015,05,21,08,10,16.20
2015,05,21,08,11,16.20
2015,05,21,08,12,16.30
2015,05,21,08,13,16.30
2015,05,21,08,14,16.40
2015,05,21,08,15,16.50
2015,05,21,08,16,16.50
2015,05,21,08,17,16.60
2015,05,21,08,18,16.60
2015,05,21,08,19,16.60
2015,05,21,08,20,16.70
2015,05,21,08,21,16.80
2015,05,21,08,22,16.90
2015,05,21,08,23,16.90
2015,05,21,08,24,17.00
2015,05,21,08,25,17.10
2015,05,21,08,26,17.10
2015,05,21,08,27,17.20
2015,05,21,08,28,17.30
2015,05,21,08,29,17.40
2015,05,21,08,30,17.40
2015,05,21,08,31,17.40
2015,05,21,08,32,17.40
2015,05,21,08,33,17.30
2015,05,21,08,34,17.30
2015,05,21,08,35,17.30
2015,05,21,08,36,17.30
2015,05,21,08,37,17.30
2015,05,21,08,38,17.20
2015,05,21,08,39,17.20
2015,05,21,08,40,17.20
2015,05,21,08,41,17.30
2015,05,21,08,42,17.30
2015,05,21,08,43,17.30
2015,05,21,08,44,17.40
2015,05,21,08,45,17.40
2015,05,21,08,46,17.50
2015,05,21,08,47,17.50
2015,05,21,08,48,17.60
2015,05,21,08,49,17.70
2015,05,21,08,50,17.70
2015,05,21,08,51,17.80
2015,05,21,08,52,17.80
2015,05,21,08,53,17.90
2015,05,21,08,54,18.00
2015,05,21,08,55,18.10
2015,05,21,08,56,18.20
2015,05,21,08,57,18.30
2015,05,21,08,58,18.30
2015,05,21,08,59,18.40
2015,05,21,09,00,18.50
2015,05,21,09,01,18.50
2015,05,21,09,02,18.60
2015,05,21,09,03,18.70
2015,05,21,09,04,18.80
2015,05,21,09,05,18.90
2015,05,21,09,06,18.90
2015,05,21,09,07,19.00
2015,05,21,09,08,19.00
2015,05,21,09,09,19.10
2015,05,21,09,10,19.10
2015,05,21,09,11,19.20
2015,05,21,09,12,19.20
2015,05,21,09,13,19.20
2015,05,21,09,14,19.20
2015,05,21,09,15,19.10
2015,05,21,09,16,19.10
2015,05,21,09,17,19.00
2015,05,21,09,18,18.90
2015,05,21,09,19,18.80
2015,05,21,09,20,18.60
2015,05,21,09,21,18.50
2015,05,21,09,22,18.50
2015,05,21,09,23,18.40
2015,05,21,09,24,18.40
2015,05,21,09,25,18.40
2015,05,21,09,26,18.40
2015,05,21,09,27,18.50
2015,05,21,09,28,18.60
2015,05,21,09,29,18.60
2015,05,21,09,30,18.50
2015,05,21,09,31,18.50
2015,05,21,09,32,18.40
2015,05,21,09,33,18.40
2015,05,21,09,34,18.40
2015,05,21,09,35,18.40
2015,05,21,09,36,18.40
2015,05,21,09,37,18.40
2015,05,21,09,38,18.40
2015,05,21,09,39,18.40
2015,05,21,09,40,18.40
2015,05,21,09,41,18.50
2015,05,21,09,42,18.40
2015,05,21,09,43,18.40
2015,05,21,09,44,18.40
2015,05,21,09,45,18.40
2015,05,21,09,46,18.40
2015,05,21,09,47,18.30
2015,05,21,09,48,18.30
2015,05,21,09,49,18.30
2015,05,21,09,50,18.30
2015,05,21,09,51,18.30
2015,05,21,09,52,18.30
2015,05,21,09,53,18.30
2015,05,21,09,54,18.40
2015,05,21,09,55,18.40
2015,05,21,09,56,18.40
2015,05,21,09,57,18.50
2015,05,21,09,58,18.50
2015,05,21,09,59,18.60
2015,05,21,10,00,18.60
2015,05,21,10,01,18.60
2015,05,21,10,02,18.70
2015,05,21,10,03,18.70
2015,05,21,10,04,18.70
2015,05,21,10,05,18.70
2015,05,21,10,06,18.70
2015,05,21,10,07,18.70
2015,05,21,10,08,18.70
2015,05,21,10,09,18.70
2015,05,21,10,10,18.70
2015,05,21,10,11,18.60
2015,05,21,10,12,18.60
2015,05,21,10,13,18.70
2015,05,21,10,14,18.70
2015,05,21,10,15,18.80
2015,05,21,10,16,18.90
2015,05,21,10,17,18.90
2015,05,21,10,18,19.00
2015,05,21,10,19,19.10
2015,05,21,10,20,19.10
2015,05,21,10,21,19.10
2015,05,21,10,22,19.10
2015,05,21,10,23,19.20
2015,05,21,10,24,19.20
2015,05,21,10,25,19.20
2015,05,21,10,26,19.30
2015,05,21,10,27,19.40
2015,05,21,10,28,19.50
2015,05,21,10,29,19.60
2015,05,21,10,30,19.70
2015,05,21,10,31,19.70
2015,05,21,10,32,19.80
2015,05,21,10,33,19.80
2015,05,21,10,34,19.80
2015,05,21,10,35,19.80
2015,05,21,10,36,19.90
2015,05,21,10,37,19.90
2015,05,21,10,38,20.00
2015,05,21,10,39,20.00
2015,05,21,10,40,20.10
2015,05,21,10,41,20.10
2015,05,21,10,42,20.20
2015,05,21,10,43,20.20
2015,05,21,10,44,20.30
2015,05,21,10,45,20.30
2015,05,21,10,46,20.30
2015,05,21,10,47,20.40
2015,05,21,10,48,20.50
2015,05,21,10,49,20.60
2015,05,21,10,50,20.70
2015,05,21,10,51,20.80
2015,05,21,10,52,20.90
2015,05,21,10,53,20.90
2015,05,21,10,54,20.90
2015,05,21,10,55,20.90
2015,05,21,10,56,20.90
2015,05,21,10,57,21.00
2015,05,21,10,58,21.10
2015,05,21,10,59,21.30
2015,05,21,11,00,21.40
2015,05,21,11,01,21.60
2015,05,21,11,02,21.80
2015,05,21,11,03,21.90
2015,05,21,11,04,21.90
2015,05,21,11,05,21.90
2015,05,21,11,06,21.90
2015,05,21,11,07,22.00
2015,05,21,11,08,22.00
2015,05,21,11,09,22.00
2015,05,21,11,10,22.00
2015,05,21,11,11,21.90
2015,05,21,11,12,21.90
2015,05,21,11,13,21.80
2015,05,21,11,14,21.80
2015,05,21,11,15,21.80
2015,05,21,11,16,21.90
2015,05,21,11,17,21.90
2015,05,21,11,18,22.00
2015,05,21,11,19,22.00
2015,05,21,11,20,22.10
2015,05,21,11,21,22.10
2015,05,21,11,22,22.10
2015,05,21,11,23,22.00
2015,05,21,11,24,21.90
2015,05,21,11,25,21.80
2015,05,21,11,26,21.70
2015,05,21,11,27,21.60
2015,05,21,11,28,21.60
2015,05,21,11,29,21.60
2015,05,21,11,30,21.50
2015,05,21,11,31,21.50
2015,05,21,11,32,21.40
2015,05,21,11,33,21.30
2015,05,21,11,34,21.20
2015,05,21,11,35,21.20
2015,05,21,11,36,21.20
2015,05,21,11,37,21.20
2015,05,21,11,38,21.20
2015,05,21,11,39,21.30
2015,05,21,11,40,21.30
2015,05,21,11,41,21.30
2015,05,21,11,42,21.30
2015,05,21,11,43,21.30
2015,05,21,11,44,21.20
2015,05,21,11,45,21.10
2015,05,21,11,46,21.10
2015,05,21,11,47,21.10
2015,05,21,11,48,21.10
2015,05,21,11,49,21.10
2015,05,21,11,50,21.00
2015,05,21,11,51,21.00
2015,05,21,11,52,20.90
2015,05,21,11,53,20.90
2015,05,21,11,54,20.80
2015,05,21,11,55,20.80
2015,05,21,11,56,20.80
2015,05,21,11,57,20.80
2015,05,21,11,58,20.90
2015,05,21,11,59,21.00
2015,05,21,12,00,21.00
2015,05,21,12,01,21.10
2015,05,21,12,02,21.10
2015,05,21,12,03,21.20
2015,05,21,12,04,21.30
2015,05,21,12,05,21.30
2015,05,21,12,06,21.30
2015,05,21,12,07,21.30
2015,05,21,12,08,21.30
2015,05,21,12,09,21.20
2015,05,21,12,10,21.20
2015,05,21,12,11,21.20
2015,05,21,12,12,21.20
2015,05,21,12,13,21.20
2015,05,21,12,14,21.30
2015,05,21,12,15,21.30
2015,05,21,12,16,21.30
2015,05,21,12,17,21.40
2015,05,21,12,18,21.40
2015,05,21,12,19,21.50
2015,05,21,12,20,21.60
2015,05,21,12,21,21.70
2015,05,21,12,22,21.80
2015,05,21,12,23,21.80
2015,05,21,12,24,21.80
2015,05,21,12,25,21.80
2015,05,21,12,26,21.80
2015,05,21,12,27,21.90
2015,05,21,12,28,21.90
2015,05,21,12,29,21.90
2015,05,21,12,30,22.00
2015,05,21,12,31,22.00
2015,05,21,12,32,22.00
2015,05,21,12,33,21.90
2015,05,21,12,34,21.90
2015,05,21,12,35,21.80
2015,05,21,12,36,21.80
2015,05,21,12,37,21.70
2015,05,21,12,38,21.70
2015,05,21,12,39,21.70
2015,05,21,12,40,21.80
2015,05,21,12,41,21.80
2015,05,21,12,42,21.80
2015,05,21,12,43,21.80
2015,05,21,12,44,21.80
2015,05,21,12,45,21.80
2015,05,21,12,46,21.90
2015,05,21,12,47,21.90
2015,05,21,12,48,21.90
2015,05,21,12,49,22.00
2015,05,21,12,50,22.00
2015,05,21,12,51,22.10
2015,05,21,12,52,22.10
2015,05,21,12,53,22.20
2015,05,21,12,54,22.20
2015,05,21,12,55,22.20
2015,05,21,12,56,22.20
2015,05,21,12,57,22.20
2015,05,21,12,58,22.20
2015,05,21,12,59,22.20
2015,05,21,13,00,22.20
2015,05,21,13,01,22.20
2015,05,21,13,02,22.10
2015,05,21,13,03,22.10
2015,05,21,13,04,22.10
2015,05,21,13,05,22.10
2015,05,21,13,06,22.10
2015,05,21,13,07,22.10
2015,05,21,13,08,22.10
2015,05,21,13,09,22.10
2015,05,21,13,10,22.10
2015,05,21,13,11,22.10
2015,05,21,13,12,22.20
2015,05,21,13,13,22.20
2015,05,21,13,14,22.30
2015,05,21,13,15,22.40
2015,05,21,13,16,22.40
2015,05,21,13,17,22.30
2015,05,21,13,18,22.30
2015,05,21,13,19,22.40
2015,05,21,13,20,22.50
2015,05,21,13,21,22.50
2015,05,21,13,22,22.60
2015,05,21,13,23,22.70
2015,05,21,13,24,22.70
2015,05,21,13,25,22.80
2015,05,21,13,26,22.80
2015,05,21,13,27,22.80
2015,05,21,13,28,22.90
2015,05,21,13,29,22.90
2015,05,21,13,30,22.90
2015,05,21,13,31,22.90
2015,05,21,13,32,22.90
2015,05,21,13,33,23.00
2015,05,21,13,34,23.00
2015,05,21,13,35,23.00
2015,05,21,13,36,23.10
2015,05,21,13,37,23.10
2015,05,21,13,38,23.00
2015,05,21,13,39,23.00
2015,05,21,13,40,22.90
2015,05,21,13,41,22.90
2015,05,21,13,42,22.90
2015,05,21,13,43,22.90
2015,05,21,13,44,22.90
2015,05,21,13,45,22.90
2015,05,21,13,46,22.90
2015,05,21,13,47,22.80
2015,05,21,13,48,22.90
2015,05,21,13,49,22.90
2015,05,21,13,50,22.90
2015,05,21,13,51,22.90
2015,05,21,13,52,23.00
2015,05,21,13,53,23.00
2015,05,21,13,54,23.10
2015,05,21,13,55,23.20
2015,05,21,13,56,23.20
2015,05,21,13,57,23.20
2015,05,21,13,58,23.20
2015,05,21,13,59,23.20
2015,05,21,14,00,23.20
2015,05,21,14,01,23.20
2015,05,21,14,02,23.20
2015,05,21,14,03,23.20
2015,05,21,14,04,23.20
2015,05,21,14,05,23.20
2015,05,21,14,06,23.20
2015,05,21,14,07,23.20
2015,05,21,14,08,23.20
2015,05,21,14,09,23.20
2015,05,21,14,10,23.10
2015,05,21,14,11,23.20
2015,05,21,14,12,23.20
2015,05,21,14,13,23.30
2015,05,21,14,14,23.30
2015,05,21,14,15,23.20
2015,05,21,14,16,23.20
2015,05,21,14,17,23.20
2015,05,21,14,18,23.20
2015,05,21,14,19,23.20
2015,05,21,14,20,23.20
2015,05,21,14,21,23.30
2015,05,21,14,22,23.30
2015,05,21,14,23,23.40
2015,05,21,14,24,23.50
2015,05,21,14,25,23.50
2015,05,21,14,26,23.60
2015,05,21,14,27,23.70
2015,05,21,14,28,23.70
2015,05,21,14,29,23.60
2015,05,21,14,30,23.50
2015,05,21,14,31,23.50
2015,05,21,14,32,23.50
2015,05,21,14,33,23.50
2015,05,21,14,34,23.50
2015,05,21,14,35,23.50
2015,05,21,14,36,23.50
2015,05,21,14,37,23.60
2015,05,21,14,38,23.70
2015,05,21,14,39,23.70
2015,05,21,14,40,23.80
2015,05,21,14,41,23.90
2015,05,21,14,42,23.90
2015,05,21,14,43,24.00
2015,05,21,14,44,24.10
2015,05,21,14,45,24.10
2015,05,21,14,46,24.20
2015,05,21,14,47,24.20
2015,05,21,14,48,24.10
2015,05,21,14,49,24.10
2015,05,21,14,50,24.20
2015,05,21,14,51,24.20
2015,05,21,14,52,24.20
2015,05,21,14,53,24.20
2015,05,21,14,54,24.10
2015,05,21,14,55,24.10
2015,05,21,14,56,24.10
2015,05,21,14,57,24.10
2015,05,21,14,58,24.20
2015,05,21,14,59,24.20
2015,05,21,15,00,24.20
2015,05,21,15,01,24.20
2015,05,21,15,02,24.20
2015,05,21,15,03,24.30
2015,05,21,15,04,24.30
2015,05,21,15,05,24.30
2015,05,21,15,06,24.20
2015,05,21,15,07,24.20
2015,05,21,15,08,24.20
2015,05,21,15,09,24.20
2015,05,21,15,10,24.20
2015,05,21,15,11,24.10
2015,05,21,15,12,24.10
2015,05,21,15,13,24.10
2015,05,21,15,14,24.10
2015,05,21,15,15,24.00
2015,05,21,15,16,24.00
2015,05,21,15,17,24.00
2015,05,21,15,18,24.10
2015,05,21,15,19,24.10
2015,05,21,15,20,24.20
2015,05,21,15,21,24.30
2015,05,21,15,22,24.40
2015,05,21,15,23,24.50
2015,05,21,15,24,24.50
2015,05,21,15,25,24.60
2015,05,21,15,26,24.60
2015,05,21,15,27,24.60
2015,05,21,15,28,24.70
2015,05,21,15,29,24.70
2015,05,21,15,30,24.70
2015,05,21,15,31,24.70
2015,05,21,15,32,24.70
2015,05,21,15,33,24.70
2015,05,21,15,34,24.70
2015,05,21,15,35,24.70
2015,05,21,15,36,24.80
2015,05,21,15,37,24.80
2015,05,21,15,38,24.80
2015,05,21,15,39,24.80
2015,05,21,15,40,24.80
2015,05,21,15,41,24.70
2015,05,21,15,42,24.70
2015,05,21,15,43,24.70
2015,05,21,15,44,24.60
2015,05,21,15,45,24.60
2015,05,21,15,46,24.60
2015,05,21,15,47,24.70
2015,05,21,15,48,24.70
2015,05,21,15,49,24.70
2015,05,21,15,50,24.80
2015,05,21,15,51,24.80
2015,05,21,15,52,24.80
2015,05,21,15,53,24.80
2015,05,21,15,54,24.80
2015,05,21,15,55,24.70
2015,05,21,15,56,24.70
2015,05,21,15,57,24.70
2015,05,21,15,58,24.60
2015,05,21,15,59,24.60
2015,05,21,16,00,24.50
2015,05,21,16,01,24.40
2015,05,21,16,02,24.40
2015,05,21,16,03,24.40
2015,05,21,16,04,24.40
2015,05,21,16,05,24.40
2015,05,21,16,06,24.50
2015,05,21,16,07,24.50
2015,05,21,16,08,24.60
2015,05,21,16,09,24.70
2015,05,21,16,10,24.70
2015,05,21,16,11,24.80
2015,05,21,16,12,24.80
2015,05,21,16,13,24.80
2015,05,21,16,14,24.80
2015,05,21,16,15,24.80
2015,05,21,16,16,24.90
2015,05,21,16,17,24.90
2015,05,21,16,18,25.00
2015,05,21,16,19,25.00
2015,05,21,16,20,25.10
2015,05,21,16,21,25.20
2015,05,21,16,22,25.20
2015,05,21,16,23,25.20
2015,05,21,16,24,25.30
2015,05,21,16,25,25.30
2015,05,21,16,26,25.30
2015,05,21,16,27,25.30
2015,05,21,16,28,25.30
2015,05,21,16,29,25.30
2015,05,21,16,30,25.40
2015,05,21,16,31,25.40
2015,05,21,16,32,25.50
2015,05,21,16,33,25.50
2015,05,21,16,34,25.60
2015,05,21,16,35,25.60
2015,05,21,16,36,25.60
2015,05,21,16,37,25.60
2015,05,21,16,38,25.60
2015,05,21,16,39,25.60
2015,05,21,16,40,25.60
2015,05,21,16,41,25.60
2015,05,21,16,42,25.70
2015,05,21,16,43,25.80
2015,05,21,16,44,26.00
2015,05,21,16,45,26.20
2015,05,21,16,46,26.30
2015,05,21,16,47,26.40
2015,05,21,16,48,26.50
2015,05,21,16,49,26.40
2015,05,21,16,50,26.40
2015,05,21,16,51,26.30
2015,05,21,16,52,26.20
2015,05,21,16,53,26.10
2015,05,21,16,54,26.10
2015,05,21,16,55,26.20
2015,05,21,16,56,26.20
2015,05,21,16,57,26.30
2015,05,21,16,58,26.30
2015,05,21,16,59,26.40
2015,05,21,17,00,26.40
2015,05,21,17,01,26.40
2015,05,21,17,02,26.30
2015,05,21,17,03,26.20
2015,05,21,17,04,26.10
2015,05,21,17,05,26.00
2015,05,21,17,06,26.00
2015,05,21,17,07,25.90
2015,05,21,17,08,25.90
2015,05,21,17,09,25.90
2015,05,21,17,10,26.00
2015,05,21,17,11,26.00
2015,05,21,17,12,26.10
2015,05,21,17,13,26.10
2015,05,21,17,14,26.20
2015,05,21,17,15,26.20
2015,05,21,17,16,26.20
2015,05,21,17,17,26.20
2015,05,21,17,18,26.20
2015,05,21,17,19,26.10